Simultaneous Nadir Overpasses (SNOs) Predictions

Prediction of SNOs between NOAA-19 and TERRA Satellite Orbit:

Table of predicted SNOs for the next 14.0 days since TLE Epoch: 3/11/2017
Index Date (NOAA-19) Time (NOAA-19) Lat,Lon (NOAA-19) SZA (NOAA-19 ) Date (TERRA) Time (TERRA) Lat,Lon (TERRA) SZA (TERRA ) Distance(km) Time Diff (sec)
1 03/11/2017 11:21:17 -75.05,-160.21 101.37 03/11/2017 11:21:32 -75.08,-160.20 101.34 3.11 15
2 03/11/2017 12:12:14 74.59, 8.38 78.22 03/11/2017 12:11:06 74.65, 6.34 78.19 60.49 68
3 03/13/2017 16:55:16 75.06, -63.68 77.78 03/13/2017 16:55:16 75.04, -63.72 77.76 2.50 0
4 03/13/2017 17:46:00 -74.56, 105.07 102.68 03/13/2017 17:44:52 -74.62, 102.83 102.72 66.46 68
5 03/15/2017 21:38:17 75.53,-135.84 77.34 03/15/2017 21:39:25 75.43,-133.75 77.31 59.34 68
6 03/15/2017 22:29:02 -75.09, 32.86 103.08 03/15/2017 22:29:00 -75.06, 32.88 103.11 3.31 2
7 03/18/2017 03:12:02 -75.47, -39.01 103.60 03/18/2017 03:13:12 -75.34, -37.44 103.67 46.47 70
8 03/18/2017 04:03:00 75.05, 129.53 76.02 03/18/2017 04:02:43 75.05, 129.44 76.02 2.54 17
9 03/20/2017 08:45:53 75.12, 58.67 75.22 03/20/2017 08:46:59 75.12, 58.55 75.23 3.46 66
10 03/20/2017 09:36:47 -75.09,-133.95 104.83 03/20/2017 09:36:28 -75.06,-133.98 104.86 3.11 19
11 03/22/2017 14:19:40 -75.15, 155.20 105.63 03/22/2017 14:20:43 -75.17, 155.25 105.60 2.83 63
12 03/22/2017 15:10:45 75.07, -37.32 74.29 03/22/2017 15:10:10 75.08, -37.34 74.30 2.24 35
13 03/24/2017 19:53:38 75.14,-108.21
